Regional Weather Roundup
Issued by NWS

Home | Current Version | Previous Version | Graphics & Text | Print | Product List | Glossary On
Versions: 1 2 3 4 5 6 7 8 9 10 11 12 13 14 15 16 17 18 19 20 21 22 23 24 25 26 27 28 29 30 31 32 33 34 35 36 37 38 39 40 41 42 43 44 45 46 47 48 49 50
000
ASUS45 KBOU 251107
RWRCO

WEATHER ROUNDUP FOR COLORADO
NATIONAL WEATHER SERVICE DENVER/BOULDER CO
400 AM MST THU DEC 25 2014

NOTE: "FAIR" INDICATES FEW OR NO CLOUDS BELOW 12000 FEET WITH NO
SIGNIFICANT WEATHER AND/OR OBSTRUCTIONS TO VISIBILITY.

COZ001>005-013-030-031-251200-
...NORTHWEST COLORADO...

CITY           SKY/WX    TMP DP  RH WIND       PRES   REMARKS
CRAIG          MOCLDY    28  23  81 E12G18    29.49F WCI  18
HAYDEN         CLOUDY    25  19  80 E6        29.49F WCI  18
MEEKER         LGT SNOW  33  22  63 S8G30     29.51F WCI  26
MOUNT WERNER   NOT AVBL
STEAMBOAT SPGS CLOUDY    20  18  93 CALM      29.50F
WALDEN         CLOUDY    27  18  69 S8        29.47F WCI  18
$$

COZ006>008-011-251200-
...WEST CENTRAL VALLEYS...

CITY           SKY/WX    TMP DP  RH WIND       PRES   REMARKS
GRAND JUNCTION CLOUDY    29  20  69 SE5       29.54F WCI  24
MONTROSE       MOCLDY    32  18  56 E7        29.56F WCI  26
EAGLE          CLOUDY    18  12  79 CALM      29.59F
RIFLE          LGT SNOW  25  17  72 W5        29.59F WCI  19
DELTA          CLOUDY    33  22  63 NE9       29.56F WCI  26
NUCLA          CLOUDY    30  21  69 N7        29.60F WCI  23
$$

COZ017>023-064>068-251200-
...SOUTHWEST COLORADO...

CITY           SKY/WX    TMP DP  RH WIND       PRES   REMARKS
DURANGO        CLOUDY    25  15  66 CALM      29.68F
CORTEZ         CLOUDY    36  14  40 SW9       29.64F
PAGOSA SPRINGS CLOUDY    23  13  64 CALM      29.70F
TELLURIDE      MOCLDY    32  15  49 S8G21     29.61F WCI  25
WOLF CREEK PAS CLOUDY    10   9  92 MISG      29.64F
$$

COZ009-010-012-014-032>034-037-058>063-251200-
...CENTRAL COLORADO...

CITY           SKY/WX    TMP DP  RH WIND       PRES   REMARKS
ASPEN          CLOUDY    20  15  81 CALM      29.52F
BUENA VISTA    PTCLDY    18   9  65 W3        29.56F
COPPER MTN     FLURRIES  23  16  74 S21       29.53F WCI   8
BERTHOUD PASS  FAIR      16  10  79 MISG      29.54F
COTTONWOOD PAS CLOUDY    28  19  69 CALM      29.55F
GUNNISON       CLOUDY     7  -6  56 CALM      29.67F
KREMMLING      FLURRIES   9   3  78 CALM      29.56F
LEADVILLE      CLOUDY    16  10  77 N3        29.51F
MONARCH PASS   MOCLDY    12   9  85 MISG      29.66F
SALIDA         PTCLDY    30   8  39 SW5G22    29.63F WCI  25
SUNLIGHT       LGT SNOW N/A N/A N/A MISG      29.51F
WILKERSON PASS CLEAR     16  10  79 SW15      29.54F WCI   1
$$

COZ069>075-251200-
...SAN LUIS VALLEY/SANGRE DE CRISTO MOUNTAINS...

CITY           SKY/WX    TMP DP  RH WIND       PRES   REMARKS
ALAMOSA        PTCLDY     3  -2  79 SW7       29.66F WCI  -9
LA VETA PASS   NOT AVBL
SAGUACHE       MOCLDY     7   1  78 NW13      29.66F WCI  -9
$$

COZ035-036-038>040-251200-
...NORTHERN COLORADO FRONT RANGE...

CITY           SKY/WX    TMP DP  RH WIND       PRES   REMARKS
DENVER INTL AP CLOUDY    40  17  39 SW17      29.38F
DMNS CITY PARK   N/A     40  14  34 S7G13     29.38F
AURORA         MOCLDY    38  16  40 S12       29.40F
FRONT RANGE AP NOT AVBL
ERIE MUNI ARPT   N/A     26  17  68 N7        29.38F WCI  18
BOULDER MUN AP MOCLDY    32  19  59 NW3       29.38F
CENTENNIAL     MOCLDY    40  17  39 SW15      29.40F
BROOMFIELD     MOCLDY    39  14  35 CALM      29.39F
FORT COLLINS   CLOUDY    27  16  63 NW3       29.41F
LONGMONT       CLOUDY    26  18  70 CALM      29.40F
$$

COZ041-046-047-076>085-087-088-251200-
...PIKES PEAK/PALMER DIVIDE AND SOUTHERN FOOTHILLS...

CITY           SKY/WX    TMP DP  RH WIND       PRES   REMARKS
COLO. SPRINGS  PTCLDY    33  12  41 NE8       29.45F WCI  26
A. F. ACADEMY  PTCLDY    33  12  42 CALM      29.44F
ELLICOTT       NOT AVBL
FALCON         PTCLDY    34  12  40 CALM      29.48S
FORT CARSON    PTCLDY    27  14  58 NE7       29.42F WCI  19
LIMON          CLOUDY    24  22  91 N7        29.42F WCI  16
MONUMENT HILL  PTCLDY    34  16  47 SW12      29.45F WCI  25
TRINIDAD       PTCLDY    35  17  47 SW15      29.53S WCI  25
$$

COZ042>045-048>051-090-091-251200-
...NORTHEAST COLORADO...

CITY           SKY/WX    TMP DP  RH WIND       PRES   REMARKS
GREELEY ARPT   CLOUDY    25  12  58 CALM      29.39F
AKRON          CLOUDY    37  22  54 N6        29.38F
BURLINGTON     MOCLDY    33  21  61 W12       29.39F WCI  24
WRAY           PTCLDY    25  22  88 CALM      29.40F
STERLING       CLOUDY    28  27  93 NW5       29.40F WCI  23
HOLYOKE        PTCLDY    30  27  86 W3        29.42F
FORT MORGAN    CLOUDY    28  23  79 W7        29.41S WCI  21
$$

COZ086-089-092>099-251200-
...SOUTHEAST COLORADO...

CITY           SKY/WX    TMP DP  RH WIND       PRES   REMARKS
PUEBLO         MOCLDY    30  16  56 VRB3      29.45F
LA JUNTA       MOCLDY    41  18  39 SW17      29.44F
LAMAR          CLOUDY    27  22  81 W6        29.43F WCI  20
SPRINGFIELD      N/A     35  23  61 NW7       29.46S WCI  29
$$


USA.gov is the U.S. government's official web portal to all federal, state and local government web resources and services.